This demonstration page uses our WeatherBlox Daily Observations layout. Learn more.

Left ArrowRight Arrow

37.21533, -93.29824

Hourly Observations for January 24, 2022

Temp ( °F °C ) Dew Point ( °F °C ) Humidity (%) Winds ( mph kmh ) Pressure ( in mb ) Visibility ( mi km ) Precip ( " mm )
12:52 am 00:52 Cloudy 36 2.2 29 -1.7 76 76 S 10 17 29.89 1012 10 16 0.00 0.00
1:52 am 01:52 Cloudy 36 2.2 29 -1.7 76 76 S 10 17 29.86 1011 10 16 0.00 0.00
2:52 am 02:52 Cloudy 36 2.2 29 -1.7 76 76 S 9 15 29.83 1010 10 16 0.00 0.00
3:52 am 03:52 Cloudy 36 2.2 29 -1.7 76 76 S 8 13 29.81 1010 10 16 0.00 0.00
4:52 am 04:52 Cloudy 37 2.8 30 -1.1 76 76 S 7 11 29.80 1009 10 16 0.00 0.00
5:52 am 05:52 Cloudy 38 3.3 30 -1.1 73 73 S 9 15 29.79 1009 10 16 0.00 0.00
6:52 am 06:52 Mostly Cloudy 42 5.6 31 -0.6 65 65 SSW 13 20 29.78 1008 10 16 0.00 0.00
7:52 am 07:52 Mostly Sunny 45 7.2 30 -1.1 56 56 WSW 13 20 29.78 1009 10 16 0.00 0.00
8:52 am 08:52 Sunny 47 8.3 30 -1.1 52 52 SW 12 19 29.78 1008 10 16 0.00 0.00
9:52 am 09:52 Sunny 50 10 29 -1.7 44 44 SW 16 26 29.77 1008 10 16 0.00 0.00
10:52 am 10:52 Sunny 55 12.8 29 -1.7 37 37 W 15 24 29.79 1009 10 16 0.00 0.00
11:52 am 11:52 Sunny 57 13.9 30 -1.1 36 36 W 13 20 29.76 1008 10 16 0.00 0.00
12:52 pm 12:52 Sunny 58 14.4 29 -1.7 33 33 WNW 12 19 29.74 1007 10 16 0.00 0.00
1:52 pm 13:52 Sunny 56 13.3 30 -1.1 37 37 NW 13 20 29.74 1007 10 16 0.00 0.00
2:52 pm 14:52 Mostly Cloudy 56 13.3 30 -1.1 37 37 WNW 8 13 29.74 1007 10 16 0.00 0.00
3:52 pm 15:52 Sunny 56 13.3 30 -1.1 37 37 NNW 12 19 29.77 1008 10 16 0.00 0.00
4:52 pm 16:52 Sunny 53 11.7 30 -1.1 41 41 NNW 14 22 29.80 1009 10 16 0.00 0.00
5:52 pm 17:52 Clear 47 8.3 30 -1.1 52 52 N 12 19 29.84 1010 10 16 0.00 0.00
6:52 pm 18:52 Clear 45 7.2 32 0 61 61 N 18 30 29.89 1012 10 16 0.00 0.00
7:52 pm 19:52 Clear 40 4.4 29 -1.7 65 65 N 18 30 29.94 1014 10 16 0.00 0.00
8:52 pm 20:52 Clear 37 2.8 28 -2.2 70 70 N 10 17 29.96 1015 10 16 0.00 0.00
9:52 pm 21:52 Clear 36 2.2 28 -2.2 73 73 N 13 20 29.98 1015 10 16 0.00 0.00
10:52 pm 22:52 Clear 35 1.7 28 -2.2 76 76 N 15 24 30.00 1016 10 16 0.00 0.00
11:52 pm 23:52 Clear 30 -1.1 23 -5 75 75 N 13 20 30.02 1017 10 16 0.00 0.00

Powered by AerisWeather